This is the latest recevied weather packets stored in our database for station/object KB7STN. If no packets are shown the sender has not sent any weather packets the latest 10 day(s).
| Time | Temp. | Humidity | Pressure | Rain* | Wind** | Luminosity | Snow |
|---|---|---|---|---|---|---|---|
| 1788643513 | 29.44° C | 13% | 1017.5 hPa | 0 mm | - | - | - |
| 1788643213 | 29.44° C | 13% | 1017 hPa | 0 mm | - | - | - |
| 1788642913 | 29.44° C | 14% | 1017.1 hPa | 0 mm | - | - | - |
| 1788642613 | 28.89° C | 15% | 1017.2 hPa | 0 mm | - | - | - |
| 1788642313 | 28.89° C | 16% | 1017.4 hPa | 0 mm | - | - | - |
| 1788642013 | 28.89° C | 14% | 1017.6 hPa | 0 mm | - | - | - |
| 1788641713 | 28.89° C | 14% | 1017.6 hPa | 0 mm | - | - | - |
| 1788641413 | 28.89° C | 15% | 1017.5 hPa | 0 mm | - | - | - |
| 1788641113 | 28.89° C | 15% | 1017.7 hPa | 0 mm | - | - | - |
| 1788640813 | 28.89° C | 15% | 1017.7 hPa | 0 mm | - | - | - |
| 1788640513 | 28.33° C | 16% | 1017.8 hPa | 0 mm | - | - | - |
| 1788640213 | 28.33° C | 15% | 1017.6 hPa | 0 mm | - | - | - |
| 1788639913 | 28.33° C | 15% | 1017.8 hPa | 0 mm | - | - | - |
| 1788639613 | 28.33° C | 16% | 1017.9 hPa | 0 mm | - | - | - |
| 1788639313 | 28.33° C | 17% | 1017.8 hPa | 0 mm | - | - | - |
| 1788639013 | 27.78° C | 17% | 1017.8 hPa | 0 mm | - | - | - |
| 1788638713 | 27.78° C | 18% | 1017.7 hPa | 0 mm | - | - | - |
| 1788638413 | 27.78° C | 21% | 1017.9 hPa | 0 mm | - | - | - |
| 1788638113 | 27.78° C | 22% | 1017.9 hPa | 0 mm | - | - | - |
| 1788637813 | 27.78° C | 20% | 1018 hPa | 0 mm | - | - | - |
| 1788637513 | 27.22° C | 21% | 1018.1 hPa | 0 mm | - | - | - |
| 1788637213 | 27.22° C | 23% | 1018.1 hPa | 0 mm | - | - | - |
| 1788636913 | 27.22° C | 22% | 1018 hPa | 0 mm | - | - | - |
| 1788636613 | 27.22° C | 23% | 1018 hPa | 0 mm | - | - | - |
| 1788636313 | 27.22° C | 21% | 1018.1 hPa | 0 mm | - | - | - |
* Rain latest hour (hover to see other rain measurements)
** Current wind speed in m/s (hover to see current wind gust speed)